This is the latest recevied weather packets stored in our database for station/object DF7ER-12. If no packets are shown the sender has not sent any weather packets the latest 10 day(s).
| Time | Temp. | Humidity | Pressure | Rain* | Wind** | Luminosity | Snow |
|---|---|---|---|---|---|---|---|
| 1788348683 | 26.11° C | 67% | 1008.6 hPa | - | - | - | - |
| 1788348383 | 25° C | 70% | 1008.7 hPa | - | - | - | - |
| 1788348083 | 25.56° C | 68% | 1008.7 hPa | - | - | - | - |
| 1788347783 | 25.56° C | 69% | 1008.8 hPa | - | - | - | - |
| 1788347483 | 25° C | 70% | 1008.8 hPa | - | - | - | - |
| 1788347183 | 26.11° C | 69% | 1008.9 hPa | - | - | - | - |
| 1788346883 | 25.56° C | 70% | 1008.9 hPa | - | - | - | - |
| 1788346583 | 25° C | 71% | 1008.9 hPa | - | - | - | - |
| 1788346283 | 25° C | 71% | 1008.9 hPa | - | - | - | - |
| 1788345983 | 24.44° C | 74% | 1009 hPa | - | - | - | - |
| 1788345683 | 23.89° C | 73% | 1009 hPa | - | - | - | - |
| 1788345383 | 24.44° C | 73% | 1009.1 hPa | - | - | - | - |
| 1788345083 | 24.44° C | 72% | 1009.1 hPa | - | - | - | - |
| 1788344783 | 25° C | 72% | 1009.1 hPa | - | - | - | - |
| 1788344483 | 23.89° C | 75% | 1009.2 hPa | - | - | - | - |
| 1788344183 | 23.33° C | 77% | 1009.2 hPa | - | - | - | - |
| 1788343883 | 23.33° C | 75% | 1009.2 hPa | - | - | - | - |
| 1788343583 | 23.33° C | 76% | 1009.2 hPa | - | - | - | - |
| 1788343283 | 24.44° C | 73% | 1009.2 hPa | - | - | - | - |
| 1788342983 | 24.44° C | 76% | 1009.2 hPa | - | - | - | - |
| 1788342683 | 23.33° C | 75% | 1009.2 hPa | - | - | - | - |
| 1788342383 | 23.33° C | 76% | 1009.2 hPa | - | - | - | - |
| 1788342083 | 22.78° C | 78% | 1009.2 hPa | - | - | - | - |
| 1788341783 | 22.22° C | 78% | 1009.2 hPa | - | - | - | - |
| 1788341483 | 22.22° C | 78% | 1009.3 hPa | - | - | - | - |
* Rain since midnight (hover to see other rain measurements)
** Current wind speed in m/s (hover to see current wind gust speed)